Location: Newark
(11.3000°S, 17.8000°E)
Time: 00:39:45
(UTC+00:00)

ISS - Visible Passes

Search period start: 09 December 2019 00:00
Search period end: 19 December 2019 00:00
Orbit: 411 x 421 km, 51.6° (Epoch: 08 December)

Date Brightness Start Highest point End Pass type
(mag) Time Alt. Az. Time Alt. Az. Time Alt. Az.
13 Dec -2.7 18:26:40 10° NNW 18:28:40 32° NNW 18:28:40 32° NNW visible
14 Dec -2.7 17:38:42 10° N 17:41:30 25° NE 17:44:20 10° ESE visible
14 Dec -0.2 19:16:46 10° WSW 19:18:08 12° SW 19:19:31 10° SSW visible
15 Dec -1.3 18:26:42 10° WNW 18:29:32 25° SW 18:32:23 10° S visible
16 Dec -3.1 17:37:39 10° NW 17:40:58 59° SW 17:44:19 10° SSE visible
17 Dec -1.4 03:32:24 10° S 03:35:20 28° SE 03:38:15 10° ENE visible
18 Dec -0.3 02:45:00 10° SSE 02:46:43 13° SE 02:48:26 10° E visible
18 Dec -0.3 17:38:46 10° W 17:40:31 13° SW 17:42:17 10° SSW visible
